一网星座-0225星 (ONEWEB-0225 )

导读

ONEWEB-0225是英国主导的OneWeb卫星互联网星座中的一颗通信卫星,于北京时间2021年5月28日8时发射入轨。作为OneWeb低轨卫星组网的组成部分,它主要为全球偏远地区提供高速宽带互联网接入服务,填补地面网络覆盖盲区,推动全球互联基础设施建设,属于商业低轨通信卫星范畴。

Basic Information
目录编号:
48799
目录名称:
ONEWEB-0225
国际标识:
2021-045AJ
轨道中心:
EARTH
卫星名称:
一网星座-0225星
卫星全名:
一网星座-0225星 (ONEWEB-0225 )
卫星状态:
在轨 (已飞行1841 天)
发射日期:
2021-05-28 UTC
国别 :
英国 (GB)
星等 :
--
Orbit Information
数据来源 国际轨道数据 AOE轨道数据
星历时间 2026-06-12T14:24:27+0800
15小时前
查看轨道信息
2026-06-11T09:00:00+0800
1天前
查看轨道信息
半长轴 7579.908km 7579.913km
偏心率 0.0001384 0.0001558
轨道倾角 87.901° 87.899°
近地点辐角 105.804° 92.220°
升交点赤经 260.178° 260.423°
平近点角 254.325° 228.186°
近地点 1200.721km 1200.595km
远地点 1202.821km 1202.957km
周期 109.460分钟 109.460分钟
每日圈数 13.155486 13.155474
Detailed Information
平衡模式:
三轴稳定
覆盖范围:
全球
运营商:
一网卫星公司
运营商所在国:
英国
制造商(研发单位):
一网卫星公司
制造商所在国:
英国
使用方式:
暂无
Satellite Introduction
OneWeb卫星网络由648颗重约125公斤的微型卫星组成,运行在1200公里的轨道上。 每颗卫星都能够提供至少每秒8千兆位的吞吐量,以使用其高吞吐量的Ku频段有效载荷为家庭和移动平台提供互联网接入。该卫星仍在工作。
2D Orbit Map
3D Orbit Map
Orbit Altitude Analysis Chart
Orbit Inclination Analysis Chart
Orbit Comprehensive Analysis Chart
View Comprehensive Chart